Starlink 3535

operational
NORAD ID: 51722 Int'l Des: 2022-016 Owner: SPXS Country: US Constellation: starlink
LEOCIRCULAR

关于 Starlink 3535

正在加载描述...

实时位置

正在加载3D地球...

即将过境

高度历史

Altitude vs Time

uPlot chart will show altitude changes over time

两行轨道根数

1 51722U 22016J 25303.02210950 -.00002541 00000-0 -14160-3 0 9999
2 51722 53.2165 195.7126 0001760 79.8625 280.2565 15.08837998203699
Epoch: Oct 30, 2025 • Age: 25 hours

当前状态

高度 541.9 km
速度 7.59 km/s
星下点 -5.90°S, 42.15°W
发射日期 Feb 21, 2022
运行时间 3.6 years
类型 internet

技术详情

分类 Payload
质量 297.00 kg
干质量 275.00 kg
总质量 297.00 kg
长度 0.20 m
直径 2.80 m
跨度 9.00 m
形状 Box + pan
制造商 SPXS
平台类型 Starlink
阶段状态 In Orbit
所有者/国家 SPXS/US

大型星座

Loading constellations...